Showing default

TOPEX/POSEIDON, 22076

Orbit data source: Space-Track

TOPEX/POSEIDON, 22076 is an American payload satellite in LEO that was launched on Mon, 10 Aug 1992 UTC via an ARIANE 42P launch vehicle from the French Guiana (FRGUI). Payload-class satellites include a variety of spacecraft equipped with specific instruments for various scientific and technological missions. These include communications satellites like Starlink; space stations such as the ISS; scientific satellites like the Hubble; Earth observation satellites from companies like Planet Labs, Umbra, and HawkEye 360; GPS; miniature CubeSats for education and research; and military/defense satellites.

Loading next visibility...
Identifier
22076, 1992-052A
Orbit
LEO
Country
Flag of USUS
Related business
Manufacturer
Fairchild
Mission
Non-operational Civil Science
Bus & Motor
MMS, Unknown motor
Mass
2,402 kg wet, 2,185 kg dry
Launch date (UTC)
1992-08-10 (33 years ago)
Launch vehicle
ARIANE 42P
Launch site
French Guiana (FRGUI)
Object type
Payload
Rocket body
Debris
Shape & HBR
Hex Poly + 1 Pan, 6.8 m
Radar Cross Section
20.954 m², Large (>1 m²)

Expand to show TLE details & history
Last TLE update: 7 hours ago

TLE from 7 hours ago
0 TOPEX/POSEIDON
1 22076U 92052A   25354.78984264 -.00000071  00000-0 -42991-4 0  9991
2 22076  66.0393 142.8160 0007802 272.0534 187.0205 12.81088864560637
Epoch: 2025-12-20T18:57Z
TLE epoch observation values (Epoch: 2025-12-20T18:57:22.404Z)
Latitude
64.58486°
Longitude
-119.67216°
Altitude
1,353.334 km
Speed
7.185 km/s
True Right ascension
16h 57m 07s
True Declination
64° 27' 42"
Sunlit
Object was in daylight at epoch
Visualization orbit readout
Latitude
Unknown
Longitude
Unknown
Altitude
Unknown
Speed
Unknown
Apparent Right ascension
Unknown
Apparent Declination
Unknown
Sunlit
N/A
Visualization observer readout
Local Sidereal Time
00:39:07
Azimuth
Unknown
Elevation
Unknown
Doppler factor
Unknown
Orbital elements
Apogee altitude
1,341.676 km
Perigee altitude
1,329.64 km
Semi-major axis
7,713.795 km
Eccentricity
0.00078
Inclination
66.0393°
RAAN
142.816°
Arg. of periapsis
272.0534°
True anomaly
187.00958°
Mean anomaly
187.0205°
Eccentric anomaly
187.01504°
Mean motion
3.20362 °/min
Orbital period
112.37 mins
BSTAR
-0.000042991
Loading maneuver chart data...
Computing Atmospheric mass density...
Loading historical data...
Loading historical data...
Loading historical data...
Loading historical data...
Loading historical data...
Loading historical data...
Loading historical data...

Documentation

Showing up to 5 results
|